sat.trackr.live / text

‹ back to catalog

AUTCUBE 2

NORAD 43681 · 2018-084K

PAYLOAD ACTIVE UNKNOWN

§ Identity

Operator
Country
JPN
Launch date
2018-10-29
Launch site
TANSC
Launch vehicle
Mass (kg)
RCS (m²)

External: N2YO · Heavens-Above · Gunter

§ Orbital elements

Epoch: 2026-05-25T00:53:34.855872Z

Period
95.37 min
Inclination
98.0737°
Eccentricity
0.0010348
Mean motion
15.09904586 rev/d
Perigee alt
529.3 km
Apogee alt
543.6 km
Semi-major
6,914.6 km
B*
2.1249e-4
RAAN
349.9855°
Arg perigee
117.6359°
Mean anomaly
242.5921°
Rev number
41,343

§ Raw data

AUTCUBE 21 43681U 18084K   26145.03720898  .00003376  00000+0  21249-3 0  99972 43681  98.0737 349.9855 0010348 117.6359 242.5921 15.09904586413436

JSON: /api/v1/satellites/43681 · /tle

For live sub-satellite position, see the globe view (requires WebGL).

§ Visibility from observer

Set your observer location to see the next 7 days of passes ≥ 10°. The values pass through the URL so the page stays shareable.

No JS? Fill the form by hand. The geolocation button needs JavaScript.

§ Radio — SatNOGS DB

ModeDescriptionDownlinkUplink
FSK Telemetry FSK9k6 437.385 MHz
WSJT WSJT 437.505 MHz

2 transmitters · refreshed weekly from db.satnogs.org